Showing default

A-1 (ASTERIX), 1778

Orbit data source: Space-Track

A-1 (ASTERIX), 1778 is a payload satellite owned by CNES (FR) in LEO that was launched on Fri, 26 Nov 1965 UTC via a DIAMANT A launch vehicle from the Hamma Guira Space Track Range (HGSTR). Payload-class satellites include a variety of spacecraft equipped with specific instruments for various scientific and technological missions. These include communications satellites like Starlink; space stations such as the ISS; scientific satellites like the Hubble; Earth observation satellites from companies like Planet Labs, Umbra, and HawkEye 360; GPS; miniature CubeSats for education and research; and military/defense satellites.

Loading next visibility...
Identifier
1778, 1965-096A
Orbit
LEO
Country
Flag of FRFR
Related business
Manufacturer
CNES
Mission
Spacecraft
Bus & Motor
A-1, Unknown motor
Mass
42 kg wet, 42 kg dry
Launch date (UTC)
1965-11-26 (60 years ago)
Launch vehicle
DIAMANT A
Launch site
Hamma Guira Space Track Range (HGSTR)
Object type
Payload
Rocket body
Debris
Shape & HBR
Unknown
Radar Cross Section
Medium (>0.1 m² and <1 m²)

Expand to show TLE details & history
Last TLE update: 17 hours ago

TLE from 17 hours ago
0 A-1 (ASTERIX)
1 01778U 65096A   26037.28092318  .00000446  00000-0  12175-3 0  9993
2 01778  34.2555 148.0447 0739738 354.2501   5.0023 13.49723705947094
Epoch: 2026-02-06T06:44Z
TLE epoch observation values (Epoch: 2026-02-06T06:44:31.762Z)
Latitude
-0.00005°
Longitude
-89.50877°
Altitude
523.541 km
Speed
7.878 km/s
True Right ascension
09h 52m 10s
True Declination
0° 00' 00"
Sunlit
Object was in full shadow at epoch
Visualization orbit readout
Latitude
Unknown
Longitude
Unknown
Altitude
Unknown
Speed
Unknown
Apparent Right ascension
Unknown
Apparent Declination
Unknown
Sunlit
N/A
Visualization observer readout
Local Sidereal Time
01:29:29
Azimuth
Unknown
Elevation
Unknown
Doppler factor
Unknown
Orbital elements
Apogee altitude
1,627.849 km
Perigee altitude
524.967 km
Semi-major axis
7,454.545 km
Eccentricity
0.07397
Inclination
34.2555°
RAAN
148.0447°
Arg. of periapsis
354.2501°
True anomaly
5.81606°
Mean anomaly
5.0023°
Eccentric anomaly
5.40126°
Mean motion
3.37219 °/min
Orbital period
106.76 mins
BSTAR
0.00012175
Loading maneuver chart data...
Computing Atmospheric mass density...
Loading historical data...
Loading historical data...
Loading historical data...
Loading historical data...
Loading historical data...
Loading historical data...
Loading historical data...
Other satellites on launch #96 in the year 1965 (1965-11-26 UTC)

Documentation

Showing up to 5 results
|